Chicago Executive, IL

1:56 AM CST on December 10, 2019 (GMT -0600)
Chicago Executive

Weather History for KPWK - October, 2019

Change the Weather History Date:

Thursday, October 17, 2019

  Actual Average Record
Temperature  
Mean Temperature 47 °F 52 °F  
Max Temperature 55 °F 61 °F 82 °F (2016)
Min Temperature 39 °F 42 °F 30 °F (2015)
Degree Days  
Heating Degree Days 18 13  
Month to date heating degree days 166 186  
Since 1 July heating degree days 173 298  
Cooling Degree Days 0 0  
Month to date cooling degree days 13 11  
Year to date cooling degree days 996 789  
Moisture  
Dew Point 37 °F    
Average Humidity 69    
Maximum Humidity 86    
Minimum Humidity 52    
Precipitation  
Precipitation 0.00 in 0.09 in 3.00 in (1998)
Month to date precipitation 2.31 1.67  
Year to date precipitation 39.00 27.36  
Sea Level Pressure  
Sea Level Pressure 30.05 in    
Wind  
Wind Speed 5 mph ()    
Max Wind Speed 12 mph    
Max Gust Speed 18 mph    
Visibility 10.0 miles    
Events      
T = Trace of Precipitation, MM = Missing Value Source: Averaged Metar Reports

Daily Weather History Graph

Daily Weather History Graph

Search for Another Location

Airport or City:

Astronomy

Oct. 17, 2019 Rise Set
Actual Time 7:06 AM CDT 6:07 PM CDT
Civil Twilight 6:37 AM CDT 6:35 PM CDT
Nautical Twilight 6:05 AM CDT 7:07 PM CDT
Astronomical Twilight 5:33 AM CDT 7:40 PM CDT
Moon 8:35 PM CDT (10/17) 10:40 AM CDT (10/17)
Length of Visible Light 11h 57m
Length of Day
11h 00m
Waning Gibbous, 86% of the Moon is Illuminated
Oct 17
Waning Gibbous
Oct 21
Last Quarter
Oct 27
New
Nov 4
First Quarter
Nov 12
Full

Hourly Weather History & Observations

Time (CDT) Temp. Windchill Dew Point Humidity Pressure Visibility Wind Dir Wind Speed Gust Speed Precip Events Conditions
12:52 AM 43.0 °F 38.8 °F 35.1 °F 74% 30.02 in 10.0 mi NW 6.9 mph - N/A   Clear
1:52 AM 43.0 °F 39.5 °F 35.1 °F 74% 30.04 in 10.0 mi NNW 5.8 mph - N/A   Clear
2:52 AM 44.1 °F 40.1 °F 36.0 °F 73% 30.02 in 10.0 mi NW 6.9 mph - N/A   Clear
3:52 AM 44.1 °F 40.8 °F 36.0 °F 73% 30.02 in 10.0 mi NNW 5.8 mph - N/A   Clear
4:52 AM 44.1 °F 41.5 °F 36.0 °F 73% 30.02 in 10.0 mi NNW 4.6 mph - N/A   Partly Cloudy
5:52 AM 44.1 °F 41.5 °F 36.0 °F 73% 30.04 in 10.0 mi WNW 4.6 mph - N/A   Overcast
6:52 AM 44.1 °F 40.8 °F 36.0 °F 73% 30.02 in 10.0 mi WNW 5.8 mph - N/A   Partly Cloudy
7:52 AM 44.1 °F 41.5 °F 37.0 °F 76% 30.05 in 10.0 mi WNW 4.6 mph - N/A   Clear
8:52 AM 46.9 °F - 37.0 °F 68% 30.06 in 10.0 mi NW 6.9 mph - N/A   Clear
9:52 AM 48.9 °F - 37.0 °F 64% 30.08 in 10.0 mi NW 6.9 mph - N/A   Clear
10:52 AM 51.1 °F - 37.0 °F 59% 30.07 in 10.0 mi NW 11.5 mph - N/A   Partly Cloudy
11:52 AM 52.0 °F - 37.0 °F 57% 30.07 in 10.0 mi NNW 6.9 mph - N/A   Mostly Cloudy
12:52 PM 52.0 °F - 37.0 °F 57% 30.05 in 10.0 mi NNW 4.6 mph - N/A   Overcast
1:52 PM 54.0 °F - 37.0 °F 53% 30.04 in 10.0 mi NE 4.6 mph - N/A   Mostly Cloudy
2:52 PM 55.0 °F - 37.9 °F 53% 30.03 in 10.0 mi NNW 8.1 mph - N/A   Overcast
3:52 PM 54.0 °F - 37.0 °F 53% 30.04 in 10.0 mi NW 4.6 mph - N/A   Overcast
4:52 PM 53.1 °F - 36.0 °F 52% 30.04 in 10.0 mi NW 8.1 mph - N/A   Overcast
5:52 PM 51.1 °F - 37.0 °F 59% 30.04 in 10.0 mi NNW 6.9 mph - N/A   Mostly Cloudy
6:52 PM 48.0 °F - 39.0 °F 71% 30.04 in 10.0 mi ENE 3.5 mph - N/A   Clear
7:52 PM 46.0 °F - 39.0 °F 76% 30.05 in 10.0 mi Calm Calm - N/A   Clear
8:52 PM 43.0 °F - 39.0 °F 86% 30.06 in 10.0 mi Calm Calm - N/A   Clear
9:52 PM 42.1 °F - 37.9 °F 85% 30.07 in 10.0 mi Calm Calm - N/A   Clear
10:52 PM 42.1 °F - 37.9 °F 85% 30.07 in 10.0 mi Calm Calm - N/A   Clear
11:52 PM 39.9 °F - 36.0 °F 86% 30.07 in 10.0 mi Calm Calm - N/A   Clear